sat.trackr.live / text

‹ back to catalog

JILIN-01 KUANFU 02B 4

NORAD 61192 · 2024-169D

PAYLOAD ACTIVE UNKNOWN

§ Identity

Operator
Country
PRC
Launch date
2024-09-20
Launch site
TAISC
Launch vehicle
Mass (kg)
RCS (m²)

External: N2YO · Heavens-Above · Gunter

§ Orbital elements

Epoch: 2026-09-22T20:54:24.811200Z

Period
95.40 min
Inclination
97.5498°
Eccentricity
0.0011862
Mean motion
15.09448381 rev/d
Perigee alt
529.7 km
Apogee alt
546.1 km
Semi-major
6,916.0 km
B*
1.7012e-4
RAAN
353.2194°
Arg perigee
292.8773°
Mean anomaly
67.1203°
Rev number
11,056

§ Raw data

JILIN-01 KUANFU 02B 41 61192U 24169D   26265.87112050  .00002662  00000+0  17012-3 0  99952 61192  97.5498 353.2194 0011862 292.8773  67.1203 15.09448381110561

JSON: /api/v1/satellites/61192 · /tle

For live sub-satellite position, see the globe view (requires WebGL).

§ Visibility from observer

Set your observer location to see the next 7 days of passes ≥ 10°. The values pass through the URL so the page stays shareable.

No JS? Fill the form by hand. The geolocation button needs JavaScript.